TimeMDT,TemperatureF,Dew PointF,Humidity,Sea Level PressureIn,VisibilityMPH,Wind Direction,Wind SpeedMPH,Gust SpeedMPH,PrecipitationIn,Events,Conditions,WindDirDegrees,DateUTC
12:14 AM,23.0,19.0,85,30.21,8.0,ENE,16.1,-,N/A,,Overcast,70,2014-03-25 06:14:00
12:53 AM,23.0,19.0,85,30.32,7.0,ENE,13.8,-,N/A,,Overcast,70,2014-03-25 06:53:00
1:53 AM,21.9,18.0,85,30.29,6.0,East,13.8,-,N/A,,Overcast,80,2014-03-25 07:53:00
2:21 AM,21.9,18.0,85,30.16,6.0,East,12.7,-,N/A,,Overcast,80,2014-03-25 08:21:00
2:53 AM,21.9,18.0,85,30.26,7.0,East,12.7,-,N/A,,Overcast,80,2014-03-25 08:53:00
3:12 AM,21.9,18.0,85,30.15,7.0,East,10.4,-,N/A,,Overcast,90,2014-03-25 09:12:00
3:53 AM,21.9,18.0,85,30.23,6.0,East,9.2,-,N/A,,Overcast,90,2014-03-25 09:53:00
4:04 AM,21.9,18.0,85,30.12,6.0,East,8.1,-,N/A,,Overcast,90,2014-03-25 10:04:00
4:53 AM,21.9,18.0,85,30.19,7.0,East,6.9,-,N/A,,Overcast,100,2014-03-25 10:53:00
5:25 AM,21.9,18.0,85,30.06,8.0,East,5.8,-,N/A,,Overcast,90,2014-03-25 11:25:00
5:53 AM,21.9,18.0,85,30.19,7.0,ENE,4.6,-,N/A,,Overcast,60,2014-03-25 11:53:00
6:53 AM,21.9,19.0,89,30.17,6.0,East,3.5,-,N/A,,Overcast,90,2014-03-25 12:53:00
7:13 AM,21.9,19.0,89,30.04,6.0,East,3.5,-,N/A,,Overcast,80,2014-03-25 13:13:00
7:35 AM,21.9,19.0,89,30.03,5.0,Calm,Calm,-,N/A,,Overcast,0,2014-03-25 13:35:00
7:53 AM,23.0,19.0,85,30.15,5.0,Calm,Calm,-,N/A,,Overcast,0,2014-03-25 13:53:00
8:53 AM,24.1,19.0,81,30.12,8.0,Calm,Calm,-,N/A,,Overcast,0,2014-03-25 14:53:00
9:53 AM,27.0,19.9,75,30.08,10.0,NW,9.2,-,N/A,,Mostly Cloudy,320,2014-03-25 15:53:00
10:06 AM,28.0,19.9,72,29.95,10.0,NNW,8.1,-,N/A,,Scattered Clouds,340,2014-03-25 16:06:00
10:53 AM,32.0,21.0,64,30.01,10.0,NNW,9.2,-,N/A,,Clear,340,2014-03-25 16:53:00
11:53 AM,39.0,21.9,50,29.93,10.0,North,6.9,-,N/A,,Clear,10,2014-03-25 17:53:00
12:53 PM,50.0,23.0,35,29.82,10.0,NW,18.4,28.8,N/A,,Clear,310,2014-03-25 18:53:00
1:53 PM,62.1,19.9,20,29.73,10.0,SSW,20.7,28.8,N/A,,Clear,210,2014-03-25 19:53:00
2:53 PM,64.9,15.1,15,29.68,10.0,SW,24.2,33.4,N/A,,Clear,230,2014-03-25 20:53:00
3:53 PM,66.0,14.0,13,29.64,10.0,SW,23.0,34.5,N/A,,Clear,230,2014-03-25 21:53:00
4:53 PM,64.9,12.0,13,29.61,10.0,WSW,23.0,33.4,N/A,,Clear,240,2014-03-25 22:53:00
5:53 PM,63.0,12.9,14,29.60,10.0,WSW,24.2,-,N/A,,Clear,240,2014-03-25 23:53:00
6:53 PM,57.0,14.0,18,29.58,10.0,SSW,18.4,-,N/A,,Clear,210,2014-03-26 00:53:00
7:53 PM,55.9,12.9,18,29.56,10.0,SW,15.0,26.5,N/A,,Clear,220,2014-03-26 01:53:00
8:53 PM,54.0,14.0,21,29.54,10.0,SW,11.5,-,N/A,,Clear,220,2014-03-26 02:53:00
9:53 PM,48.0,21.9,36,29.54,10.0,Calm,Calm,-,N/A,,Clear,0,2014-03-26 03:53:00
10:53 PM,44.1,27.0,51,29.52,10.0,SE,11.5,-,N/A,,Clear,130,2014-03-26 04:53:00
11:53 PM,41.0,27.0,57,29.48,10.0,ENE,10.4,-,N/A,,Clear,70,2014-03-26 05:53:00